Location: Plainartige
(45.6866°N, 1.7993°E)
Time: 04:28:04
(UTC+00:00)

deb r/b Ablestar - Pass Details

Date: 25 September 2021
Orbit: 844 x 997 km, 67.7° (Epoch: 25 October)

Event Time Altitude Azimuth Distance (km) Brightness Sun altitude
Rises 21:56:51 0° 325° (NW) 3,413 ? -39.7°
Reaches altitude 10° 21:59:20 10° 321° (NW) 2,480 ? -39.9°
Enters shadow 22:01:31 24° 313° (NW) 1,710 ? -40.1°
